Regional Weather Roundup
Issued by NWS

Home | Current Version | Previous Version | Graphics & Text | Print | Product List | Glossary On
Versions: 1 2 3 4 5 6 7 8 9 10 11 12 13 14 15 16 17 18 19 20 21 22 23 24 25 26 27 28 29 30 31 32 33 34 35 36 37 38 39 40 41 42 43 44 45 46 47 48 49 50
000
ASUS43 KTOP 291759
RWRKS

WEATHER ROUNDUP FOR KANSAS
NATIONAL WEATHER SERVICE GOODLAND KS
100 PM CDT MON MAY 29 2017

NOTE:  "FAIR" INDICATES FEW OR NO CLOUDS BELOW 12,000 FEET WITH NO
SIGNIFICANT WEATHER AND/OR OBSTRUCTIONS TO VISIBILITY.

KSZ001>006-013>018-027>032-041>047-291900-
NORTHWEST KANSAS

CITY           SKY/WX    TMP DP  RH WIND       PRES   REMARKS
GOODLAND       CLOUDY    68  43  40 N6        30.20S
6HR MIN TEMP:  50; 6HR MAX TEMP:  69;

HAYS           SUNNY     74  53  48 NW12      30.11F
HILL CITY      SUNNY     78  41  26 N20G25    30.13S
6HR MIN TEMP:  51; 6HR MAX TEMP:  79;

RUSSELL        SUNNY     74  53  48 NW14      30.09S
6HR MIN TEMP:  55; 6HR MAX TEMP:  74;

$$

KSZ061>065-074>080-084>089-291900-
SOUTHWEST KANSAS

CITY           SKY/WX    TMP DP  RH WIND       PRES   REMARKS
DODGE CITY     SUNNY     77  47  34 NW9       30.15S
6HR MIN TEMP:  52; 6HR MAX TEMP:  78;

ELKHART          N/A     73  41  31 MISG        N/A
GARDEN CITY    SUNNY     76  46  34 N10       30.15F
6HR MIN TEMP:  51; 6HR MAX TEMP:  77;

GREAT BEND     SUNNY     76  51  41 N12       30.10S
LIBERAL        SUNNY     77  48  35 N9        30.16F
$$

KSZ066>073-081>083-090>101-291900-
SOUTHEAST KANSAS

CITY           SKY/WX    TMP DP  RH WIND       PRES   REMARKS
CHANUTE        SUNNY     82  50  32 NW8       30.03F
6HR MIN TEMP:  56; 6HR MAX TEMP:  82;

COFFEYVILLE    SUNNY     85  54  34 W9G20     30.02F
6HR MIN TEMP:  58; 6HR MAX TEMP:  86;

HUTCHINSON     SUNNY     79  49  34 W7        30.06F
6HR MIN TEMP:  57; 6HR MAX TEMP:  81;

MEDICINE LODGE   N/A     82  47  29 N9        30.07S
PARSONS        SUNNY     85  53  33 N8        30.04S
6HR MIN TEMP:  54; 6HR MAX TEMP:  85;

WICHITA INTL   MOSUNNY   81  50  33 N8        30.06S
6HR MIN TEMP:  59; 6HR MAX TEMP:  81;

WICHITA JABRA  SUNNY     81  50  33 NW9       30.06S
6HR MIN TEMP:  62; 6HR MAX TEMP:  81;

WINFIELD       SUNNY     83  51  33 N13       30.06R
6HR MIN TEMP:  55; 6HR MAX TEMP:  84;

$$

KSZ007>012-019>026-033>040-048>060-102>105-291900-
NORTHEAST KANSAS

CITY           SKY/WX    TMP DP  RH WIND       PRES   REMARKS
CONCORDIA      SUNNY     75  52  44 NW5       30.07S
6HR MIN TEMP:  54; 6HR MAX TEMP:  75;

EMPORIA        SUNNY     80  52  37 N7        30.04S
6HR MIN TEMP:  58; 6HR MAX TEMP:  80;

LAWRENCE       SUNNY     79  54  41 N12       30.01F
6HR MIN TEMP:  57; 6HR MAX TEMP:  79;

MANHATTAN      SUNNY     79  52  38 N8        30.04F
6HR MIN TEMP:  57; 6HR MAX TEMP:  79;

OLATHE IND     SUNNY     78  52  40 NW13G21   30.02S
6HR MIN TEMP:  60; 6HR MAX TEMP:  78;

OLATHE EXE     SUNNY     78  52  40 NW13G21   30.02S
6HR MIN TEMP:  59; 6HR MAX TEMP:  78;

SALINA         SUNNY     79  53  40 NW7       30.07S
6HR MIN TEMP:  60; 6HR MAX TEMP:  79;

TOPEKA BILLARD SUNNY     79  57  46 NW9       30.02F
6HR MIN TEMP:  60; 6HR MAX TEMP:  79;

TOPEKA FORBES  SUNNY     79  55  43 VRB6      30.03S
6HR MIN TEMP:  63; 6HR MAX TEMP:  79;

$$




USA.gov is the U.S. government's official web portal to all federal, state and local government web resources and services.